Stevensville, MD

6:56 AM EDT on August 23, 2017 (GMT -0400)
Stevensville

Weather History for KW29 - December, 2013

Change the Weather History Date:

Monday, December 23, 2013

  Actual Average (KESN) Record (KESN)
Temperature  
Mean Temperature 52 °F -  
Max Temperature 62 °F 45 °F 69 °F (2015)
Min Temperature 41 °F 27 °F 10 °F (1960)
Degree Days  
Heating Degree Days 14    
Growing Degree Days 2 (Base 50)    
Moisture  
Dew Point 50 °F    
Average Humidity 91    
Maximum Humidity 100    
Minimum Humidity 61    
Precipitation  
Precipitation 0.00 in - - ()
Sea Level Pressure  
Sea Level Pressure 30.04 in    
Wind  
Wind Speed 7 mph (West)    
Max Wind Speed 17 mph    
Max Gust Speed 26 mph    
Visibility 8 miles    
Events Fog , Rain    
Averages and records for this station are not official NWS values.
T = Trace of Precipitation, MM = Missing Value Source: NWS Daily Summary

Daily Weather History Graph

Daily Weather History Graph

Search for Another Location

Airport or City:

Trip Planner

Search our weather history database for the weather conditions in past years. The results will help you decide how hot, cold, wet, or windy it might be!

Date:

Astronomy

Dec. 23, 2013 Rise Set
Actual Time 7:21 AM EST 4:47 PM EST
Civil Twilight 6:51 AM EST 5:17 PM EST
Nautical Twilight 6:18 AM EST 5:51 PM EST
Astronomical Twilight 5:45 AM EST 6:23 PM EST
Moon 10:52 PM EST 10:48 AM EST
Length of Visible Light 10h 26m
Length of Day
9h 25m
Waning Gibbous, 68% of the Moon is Illuminated
Dec 23
Waning Gibbous
Dec 25
Last Quarter
Jan 1
New
Jan 7
First Quarter
Jan 15
Full

Hourly Weather History & Observations

Time (EST) Temp. Windchill Dew Point Humidity Pressure Visibility Wind Dir Wind Speed Gust Speed Precip Events Conditions
12:18 AM 55.4 °F - 55.4 °F 100% 29.99 in 10.0 mi SSE 5.8 mph - N/A   Clear
12:38 AM 59.0 °F - 57.2 °F 94% 30.00 in 10.0 mi South 5.8 mph - N/A Rain Light Rain
12:58 AM 57.2 °F - 55.4 °F 94% 29.99 in 10.0 mi SSE 4.6 mph - N/A   Light Drizzle
1:18 AM 55.4 °F - 55.4 °F 100% 29.99 in 10.0 mi Calm Calm - N/A   Clear
1:38 AM 55.4 °F - 55.4 °F 100% 29.99 in 10.0 mi Calm Calm - N/A Rain Light Rain
1:58 AM 57.2 °F - 57.2 °F 100% 29.99 in 10.0 mi South 3.5 mph - N/A Rain Light Rain
2:18 AM 59.0 °F - 59.0 °F 100% 30.00 in 10.0 mi SSE 5.8 mph - N/A Rain Rain
2:38 AM 57.2 °F - 57.2 °F 100% 30.00 in 10.0 mi SSE 4.6 mph - N/A Rain Light Rain
2:58 AM 57.2 °F - 57.2 °F 100% 29.99 in 10.0 mi SSE 3.5 mph - N/A   Mostly Cloudy
3:19 AM 55.4 °F - 55.4 °F 100% 29.98 in 10.0 mi SE 4.6 mph - N/A   Light Drizzle
3:39 AM 55.4 °F - 55.4 °F 100% 29.98 in 10.0 mi SSE 5.8 mph - N/A   Clear
3:59 AM 55.4 °F - 55.4 °F 100% 29.98 in 10.0 mi SSE 4.6 mph - N/A Rain Light Rain
4:19 AM 55.4 °F - 55.4 °F 100% 29.97 in 10.0 mi SSE 5.8 mph - N/A Rain Rain
4:39 AM 55.4 °F - 55.4 °F 100% 29.98 in 10.0 mi SSE 4.6 mph - N/A Rain Rain
4:59 AM 55.4 °F - 55.4 °F 100% 29.98 in 10.0 mi SSE 4.6 mph - N/A Rain Light Rain
5:19 AM 55.4 °F - 55.4 °F 100% 29.98 in 10.0 mi SSE 4.6 mph - N/A Rain Light Rain
5:39 AM 55.4 °F - 55.4 °F 100% 29.97 in 10.0 mi SE 4.6 mph - N/A Rain Light Rain
5:59 AM 55.4 °F - 55.4 °F 100% 29.96 in 10.0 mi SE 5.8 mph - N/A   Scattered Clouds
6:19 AM 55.4 °F - 55.4 °F 100% 29.97 in 10.0 mi SSE 5.8 mph - N/A Rain Light Rain
6:39 AM 55.4 °F - 55.4 °F 100% 29.96 in 10.0 mi SE 4.6 mph - N/A Rain Light Rain
6:59 AM 55.4 °F - 55.4 °F 100% 29.97 in 10.0 mi South 4.6 mph - N/A Rain Light Rain
7:19 AM 55.4 °F - 55.4 °F 100% 29.97 in 7.0 mi Calm Calm - N/A Rain Light Rain
7:39 AM 51.8 °F - 51.8 °F 100% 29.97 in 4.0 mi Calm Calm - N/A Rain Light Rain
7:59 AM 50.0 °F - 50.0 °F 100% 29.97 in 3.0 mi SE 4.6 mph - N/A Rain Light Rain
8:19 AM 57.2 °F - 57.2 °F 100% 29.97 in 0.2 mi SSE 8.1 mph - N/A Fog Fog
8:39 AM 57.2 °F - 57.2 °F 100% 29.97 in 0.5 mi SSE 6.9 mph - N/A Rain Light Rain
8:59 AM 55.4 °F - 55.4 °F 100% 29.97 in 0.5 mi SSE 9.2 mph - N/A Rain Light Rain
9:19 AM 59.0 °F - 59.0 °F 100% 29.97 in 4.0 mi SSE 9.2 mph - N/A Rain Light Rain
9:39 AM 59.0 °F - 59.0 °F 100% 29.96 in 7.0 mi SSE 9.2 mph - N/A Rain Light Rain
9:59 AM 60.8 °F - 60.8 °F 100% 29.95 in 7.0 mi SSE 11.5 mph - N/A Rain Light Rain
10:19 AM 60.8 °F - 60.8 °F 100% 29.98 in 10.0 mi South 10.4 mph 17.3 mph N/A Rain Rain
10:39 AM 62.6 °F - 62.6 °F 100% 29.98 in 7.0 mi South 11.5 mph 17.3 mph N/A Rain Rain
10:59 AM 62.6 °F - 62.6 °F 100% 29.97 in 7.0 mi South 10.4 mph 17.3 mph N/A Rain Rain
11:20 AM 62.6 °F - 62.6 °F 100% 29.96 in 10.0 mi South 9.2 mph - N/A Rain Light Rain
11:40 AM 55.4 °F - 55.4 °F 100% 29.98 in 3.0 mi WSW 5.8 mph 18.4 mph N/A Rain Rain
12:00 PM 57.2 °F - 57.2 °F 100% 29.97 in 7.0 mi West 4.6 mph - N/A Rain Light Rain
12:20 PM 55.4 °F - 55.4 °F 100% 29.97 in 7.0 mi Calm Calm - N/A Rain Rain
12:40 PM 55.4 °F - 55.4 °F 100% 29.97 in 7.0 mi North 4.6 mph - N/A   Light Drizzle
1:00 PM 55.4 °F - 55.4 °F 100% 29.98 in 10.0 mi North 4.6 mph - N/A Rain Light Rain
1:20 PM 57.2 °F - 57.2 °F 100% 30.00 in 5.0 mi WNW 5.8 mph - N/A Rain Light Rain
1:40 PM 53.6 °F - 53.6 °F 100% 30.00 in 3.0 mi NW 6.9 mph - N/A Rain Light Rain
2:00 PM 55.4 °F - 55.4 °F 100% 30.02 in 3.0 mi NNW 8.1 mph - N/A Rain Light Rain
2:20 PM 51.8 °F - 51.8 °F 100% 30.02 in 7.0 mi North 9.2 mph - N/A Rain Light Rain
2:40 PM 51.8 °F - 51.8 °F 100% 30.02 in 10.0 mi North 8.1 mph - N/A   Light Drizzle
3:00 PM 53.6 °F - 53.6 °F 100% 30.02 in 10.0 mi North 5.8 mph - N/A Rain Light Rain
3:20 PM 53.6 °F - 53.6 °F 100% 30.04 in 10.0 mi North 5.8 mph - N/A Rain Light Rain
3:40 PM 50.0 °F - 50.0 °F 100% 30.06 in 10.0 mi NNW 6.9 mph - N/A   Overcast
4:00 PM 50.0 °F - 50.0 °F 100% 30.07 in 7.0 mi NNW 13.8 mph 21.9 mph N/A   Overcast
4:20 PM 50.0 °F - 44.6 °F 82% 30.07 in 10.0 mi NNW 12.7 mph 18.4 mph N/A Rain Light Rain
4:40 PM 50.0 °F - 44.6 °F 82% 30.09 in 10.0 mi NW 11.5 mph - N/A   Mostly Cloudy
5:00 PM 50.0 °F - 44.6 °F 82% 30.10 in 10.0 mi NNW 11.5 mph - N/A Rain Light Rain
5:20 PM 48.2 °F - 42.8 °F 82% 30.10 in 10.0 mi NW 9.2 mph - N/A Rain Light Rain
5:40 PM 48.2 °F - 42.8 °F 82% 30.11 in 10.0 mi NW 11.5 mph 17.3 mph N/A   Light Drizzle
6:00 PM 46.4 °F 40.4 °F 42.8 °F 87% 30.13 in 10.0 mi WNW 13.8 mph - N/A Rain Rain
6:20 PM 46.4 °F 40.4 °F 41.0 °F 81% 30.13 in 10.0 mi WNW 13.8 mph - N/A   Mostly Cloudy
6:40 PM 46.4 °F 40.4 °F 41.0 °F 81% 30.15 in 10.0 mi WNW 13.8 mph - N/A Rain Light Rain
7:00 PM 46.4 °F 41.1 °F 37.4 °F 71% 30.15 in 10.0 mi NW 11.5 mph - N/A   Scattered Clouds
7:20 PM 44.6 °F 40.2 °F 39.2 °F 81% 30.15 in 10.0 mi NW 8.1 mph - N/A Rain Light Rain
7:41 PM 44.6 °F 40.2 °F 39.2 °F 81% 30.19 in 10.0 mi NW 8.1 mph - N/A   Mostly Cloudy
8:01 PM 44.6 °F 38.1 °F 35.6 °F 71% 30.16 in 10.0 mi NNW 13.8 mph 20.7 mph N/A Rain Light Rain
8:21 PM 44.6 °F 37.2 °F 33.8 °F 66% 30.17 in 10.0 mi NNW 17.3 mph 21.9 mph N/A   Mostly Cloudy
8:41 PM 44.6 °F 38.4 °F 33.8 °F 66% 30.17 in 10.0 mi NNW 12.7 mph 23.0 mph N/A   Mostly Cloudy
9:01 PM 42.8 °F 35.8 °F 33.8 °F 70% 30.18 in 10.0 mi NNW 13.8 mph 21.9 mph N/A   Overcast
9:21 PM 42.8 °F 35.8 °F 33.8 °F 70% 30.18 in 10.0 mi NW 13.8 mph 20.7 mph N/A   Mostly Cloudy
9:41 PM 42.8 °F 35.8 °F 33.8 °F 70% 30.19 in 10.0 mi NNW 13.8 mph 20.7 mph N/A   Mostly Cloudy
10:01 PM 42.8 °F 35.8 °F 33.8 °F 70% 30.21 in 10.0 mi NNW 13.8 mph 20.7 mph N/A   Overcast
10:21 PM 42.8 °F 35.1 °F 32.0 °F 66% 30.21 in 10.0 mi NNW 16.1 mph 21.9 mph N/A   Overcast
10:41 PM 41.0 °F 33.5 °F 32.0 °F 70% 30.22 in 10.0 mi NNW 13.8 mph 24.2 mph N/A   Mostly Cloudy
11:01 PM 41.0 °F 33.9 °F 30.2 °F 65% 30.22 in 10.0 mi NNW 12.7 mph 23.0 mph N/A   Scattered Clouds
11:21 PM 41.0 °F 33.1 °F 30.2 °F 65% 30.22 in 10.0 mi NNW 15.0 mph 26.5 mph N/A   Scattered Clouds
11:41 PM 41.0 °F 32.5 °F 28.4 °F 61% 30.22 in 10.0 mi NNW 17.3 mph 24.2 mph N/A   Clear